www.pogodaiklimat.ru

Погода и климат >> Архив погоды >> Россия >> Якутия >> Сухана


ПОГОДА в Сухане

  • Прогноз погоды в Сухане
  • Монитор погоды в Сухане
  • Климат города

АРХИВ ПОГОДЫ в Сухане

Время (UTC), дата Ветер
(напр.,м/с)
 
Видим.   Явления Облачность Т
(С)
Тd
(С)
f
(%)
Тe
(С)
Тes
(С)
Комфортность P
(гПа)
Po
(гПа)
Тmin
(С)
Tmax
(С)
R
(мм)
R24
(мм)
S
(см)
00 12.01 штиль 0 50 км ясно -51.6 -55.1 66 -52 -52 опасность
обморожения
1023.5 1011.5 -52.8 33
03 12.01 штиль 0 50 км 3/0
[As trans]
-51.4 -55.1 64 -51 -51 опасность
обморожения
1022.9 1010.9
06 12.01 штиль 0 50 км ясно -51.4 -55.1 64 -51 -51 опасность
обморожения
1021.9 1009.9
09 12.01 штиль 0 50 км ясно -51.1 -53.5 75 -51 -51 опасность
обморожения
1021.4 1009.4
12 12.01 штиль 0 50 км ясно -51.1 -53.5 75 -51 -51 опасность
обморожения
1021.0 1009.1 -51.1
15 12.01 штиль 0 50 км ясно -50.9 -54.2 68 -51 -51 опасность
обморожения
1019.6 1006.7
18 12.01 штиль 0 50 км ясно -51.1 -52.5 85 -51 -51 опасность
обморожения
1018.6 1006.7
21 12.01 штиль 0 50 км ясно -50.9 -53.5 74 -51 -51 опасность
обморожения
1017.2 1005.3
00 13.01 штиль 0 50 км ясно -51.1 -53.6 74 -51 -51 опасность
обморожения
1016.6 1004.7 -51.2 33
03 13.01 штиль 0 50 км 1/0
[As trans]
-51.0 -53.5 74 -51 -51 опасность
обморожения
1015.0 1003.1
06 13.01 штиль 0 50 км 1/0
[As trans]
-51.0 -53.5 74 -51 -51 опасность
обморожения
1015.2 1003.3
09 13.01 штиль 0 50 км ясно -50.5 -53.5 70 -51 -51 опасность
обморожения
1016.6 1004.7
12 13.01 штиль 0 50 км ясно -50.2 -53.5 68 -50 -50 опасность
обморожения
1015.0 1003.1 -50.2
15 13.01 С 1 50 км ясно -46.5 -50.1 66 -52 -52 опасность
обморожения
1013.8 1002.1
18 13.01 С 2 50 км ясно -45.8 -49.2 68 -56 -56 опасность
обморожения
1014.4 1002.7
21 13.01 СВ 1 50 км ясно -45.7 -49.2 67 -52 -52 опасность
обморожения
1014.6 1002.9
00 14.01 СВ 2 50 км ясно -44.6 -47.5 73 -54 -54 опасность
обморожения
1014.2 1002.5 -50.2 33
03 14.01 СВ 3 50 км 8/0
[Ac As Cs]
-43.6 -46.8 70 -56 -56 опасность
обморожения
1013.9 1002.2
06 14.01 С 2 50 км 8/0
[Ac As Cs]
-43.0 -46.1 71 -53 -53 опасность
обморожения
1023.8 1002.1
09 14.01 С 1 50 км 8/0
[Ac As Cs]
-43.0 -46.1 71 -49 -49 опасность
обморожения
1023.6 1001.9
12 14.01 штиль 0 20 км слабый снег 10/0
[Cs]
-42.2 -45.5 70 -42 -42 опасность
обморожения
1012.9 1001.5 -42.2 0.0
15 14.01 штиль 0 50 км {снег} 9/0
[Cs]
-42.2 -45.5 70 -42 -42 опасность
обморожения
1012.9 1001.5
18 14.01 С 1 20 км слабый снег 10/0
[Cs]
-43.5 -46.8 70 -49 -49 опасность
обморожения
1012.0 1001.3
21 14.01 С 1 20 км слабый снег 10/0
[Cs]
-44.8 -48.3 68 -51 -51 опасность
обморожения
1011.7 1001.0
00 15.01 С 2 20 км слабый снег 10/0
[Cs]
-45.3 -48.3 72 -55 -55 опасность
обморожения
1011.4 1000.7 -45.3 0.4 33
03 15.01 штиль 0 20 км слабый снег 8/0
[As trans Cs]
-46.7 -50.1 68 -47 -47 опасность
обморожения
1011.3 1000.6 -46.7
06 15.01 штиль 0 50 км {снег} 4/0
[As trans]
-48.3 -51.1 72 -48 -48 опасность
обморожения
1012.4 1000.5
09 15.01 штиль 0 50 км 4/0
[As trans]
-49.4 -52.2 72 -49 -49 опасность
обморожения
1012.9 1001.0
12 15.01 штиль 0 50 км ясно -49.9 -53.5 66 -50 -50 опасность
обморожения
1013.6 1001.7 -45.3 0.2
15 15.01 С 1 50 км ясно -50.2 -53.5 68 -57 -57 опасность
обморожения
1013.8 1001.9
18 15.01 штиль 0 20 км слабый снег 10/0
[Cs]
-51.0 -53.5 74 -51 -51 опасность
обморожения
1014.5 1002.6
21 15.01 штиль 0 20 км слабый снег 10/0
[Cs]
-50.4 -53.5 69 -50 -50 опасность
обморожения
1013.6 1001.7
00 16.01 штиль 0 20 км слабый снег 10/0
[Cs]
-51.9 -55.1 68 -52 -52 опасность
обморожения
1014.0 1002.1 -52.7 0.3 33
03 16.01 штиль 0 50 км {снег} 3/3
[Cb cap Ci fib]
-51.5 -55.1 65 -52 -52 опасность
обморожения
1014.1 1012.2
06 16.01 штиль 0 50 км {снег} 8/0
[As trans Ci sp]
-50.5 -53.5 70 -51 -51 опасность
обморожения
1014.2 1002.3
09 16.01 штиль 0 50 км ясно -50.2 -53.5 68 -50 -50 опасность
обморожения
1014.5 1002.6
12 16.01 штиль 0 50 км 6/0
[Cs]
-51.3 -55.1 64 -51 -51 опасность
обморожения
1015.8 1003.9 -50.2 0.0
15 16.01 штиль 0 50 км ясно -52.2 -55.1 71 -52 -52 опасность
обморожения
1016.6 1004.7
18 16.01 штиль 0 50 км ясно -53.0 -56.9 62 -53 -53 опасность
обморожения
1019.7 1007.5
21 16.01 штиль 0 50 км ясно -54.4 -56.9 74 -54 -54 опасность
обморожения
1021.3 1009.1
00 17.01 штиль 0 50 км ясно -53.4 -56.9 65 -53 -53 опасность
обморожения
1022.9 1010.6 -54.7 33
03 17.01 штиль 0 50 км 6/0
[Ac As Cs]
-52.7 -55.1 75 -53 -53 опасность
обморожения
1023.4 1011.1
06 17.01 штиль 0 50 км 1/0
[Cs]
-52.0 -55.1 69 -52 -52 опасность
обморожения
1023.8 1011.8
09 17.01 штиль 0 50 км 4/0
[Ac As]
-53.2 -56.9 64 -53 -53 опасность
обморожения
1025.4 1013.1
12 17.01 штиль 0 50 км ясно -53.6 -56.9 67 -54 -54 опасность
обморожения
1026.5 1014.2 -52.0
15 17.01 штиль 0 50 км ясно -54.0 -56.9 70 -54 -54 опасность
обморожения
1027.5 1015.2
18 17.01 штиль 0 50 км ясно -54.9 -56.9 78 -55 -55 опасность
обморожения
1029.4 1017.1
21 17.01 штиль 0 50 км ясно -54.9 -56.9 78 -55 -55 опасность
обморожения
1029.9 1017.6
00 18.01 штиль 0 50 км ясно -55.1 -59.2 60 -55 -55 опасность
обморожения
1031.4 1019.1 -55.1 33
03 18.01 штиль 0 50 км ясно -55.0 -56.9 79 -55 -55 опасность
обморожения
1032.3 1020.0
06 18.01 З 1 50 км ясно -53.0 -56.9 62 -60 -60 опасность
обморожения
1031.8 1019.5
09 18.01 штиль 0 50 км ясно -53.3 -56.9 65 -53 -53 опасность
обморожения
1034.7 1022.3
12 18.01 штиль 0 50 км ясно -52.7 -55.1 75 -53 -53 опасность
обморожения
1036.2 1023.8 -52.7
15 18.01 штиль 0 50 км ясно -52.1 -55.2 69 -52 -52 опасность
обморожения
1036.9 1024.7
18 18.01 штиль 0 50 км ясно -52.3 -55.1 71 -52 -52 опасность
обморожения
1038.2 1026.0
21 18.01 штиль 0 50 км ясно -53.6 -56.9 67 -54 -54 опасность
обморожения
1038.4 1026.0

 

Местоположение метеостанции Сухана (Якутия, Россия): широта 68.62 долгота 118.30 высота над уровнем моря 77 м.

В архиве по умолчанию представлена погода в Сухане за последнюю неделю. Архивные данные за месяц целиком и за предыдущие месяцы, начиная с января 2011 года, Вы можете получить, выбрав интересующий диапазон дат из раскрывающегося списка и нажав кнопку "Ввод!".

Внимание! Время в таблицах - всемирное. Для получения местного времени необходимо прибавить поправку, которая в Сухане равна 9 ч.

Смотрите также архив погоды в соседних городах и на ближайших метеорологических станциях:

Погода в Джарджане (Якутия, Россия) (231 км)
Погода в Оленеке (Якутия, Россия) (240 км)
Погода в Джалинде (Якутия, Россия) (241 км)
Погода в Эйке (Якутия, Россия) (291 км)
Погода в Жиганске (Якутия, Россия) (294 км)
Погода в Шелагонцах (Якутия, Россия) (316 км)
Погода в Полярном (Якутия, Россия) (326 км)
Погода в Саскылахе (Якутия, Россия) (406 км)
Погода в Тюмяти (Якутия, Россия) (415 км)
Погода в Кюсюре (Якутия, Россия) (419 км)

Пояснения к столбцам:

Ветер - указаны скорость ветра в м/с - средняя за 10 мин, порывы в срок и между сроками (в фигурных скобках) и направление, откуда дует ветер: С - северный, СВ - северо-восточный, В - восточный, ЮВ - юго-восточный, Ю - южный, ЮЗ - юго-западный, З - западный, СЗ - северо-западный.
Видимость - горизонтальная дальность видимости в метрах или километрах. При видимости от 1 до 10 км при отсутствии осадков обычно наблюдается дымка, при ухудшении видимости до 1 км и менее - туман. В сухую погоду видимость может ухудшаться дымом, пылью или мглою.
Явления - указаны атмосферные явления, наблюдавшиеся в срок или в последний час перед сроком; фигурными скобками обозначены явления, наблюдавшиеся между сроками (за 1-3 часа до срока); квадратными скобками обозначены град или гололедные отложения с указанием их диаметра в мм.
Облачность - указаны через наклонную черту общая и нижняя облачность в баллах и высота нижней границы облаков в метрах; квадратными скобками обозначены формы облаков: Ci - перистые, Cs - перисто-слоистые, Cc - перисто-кучевые, Ac - высококучевые, As - высокослоистые, Sc - слоисто-кучевые, Ns - слоисто-дождевые, Cu - кучевые, Cb - кучево-дождевые. Подробнее классификацию облаков см. в Атласе облаков (PDF).
T - Температура воздуха - температура, измеренная на высоте 2 м над землей.
Td - Температура точки росы - температура, при понижении до которой содержащийся в воздухе водяной пар достигнет насыщения.
f - Относительная влажность воздуха - влажноcть воздуха, измеренная на высоте 2 м над землей.
Te - Эффективная температура - температура, которую ощущает одетый по сезону человек в тени. Характеристика душности погоды. При расчете учитывается влияние влажности воздуха и скорости ветра на теплоощущения человека.
Tes - Эффективная температура на солнце - температура, которую ощущает человек, с поправкой на солнечный нагрев. Характеристика знойности погоды. Зависит от высоты солнца над горизонтом, облачности и скорости ветра. Ночью, в пасмурную погоду, а также при ветре 12 м/с и более поправка равна нулю.
P - Атмосферное давление - приведенное к уровню моря атмосферное давление.
Po - Атмосферное давление - измеренное на уровне метеостанции атмосферное давление.
Tmin - Минимальная температура - минимум температуры воздуха на высоте 2 м над землей.
Tmax - Максимальная температура - максимум температуры воздуха на высоте 2 м над землей.
R - Количество осадков - Количество выпавших осадков за период времени, мм. При наведении курсора мыши на число - период времени, за который выпало указанное количество осадков.
R24 - Количество осадков - Количество выпавших осадков за 24 часа, мм.
S - Снежный покров - Высота снежного покрова, см. При наведении курсора мыши на число - состояние снежного покрова и степень покрытия местности в баллах.